This is the latest recevied weather packets stored in our database for station/object KA3RQR. If no packets are shown the sender has not sent any weather packets the latest 1 day(s).
| Time | Temp. | Humidity | Pressure | Rain* | Wind** | Luminosity | Snow |
|---|---|---|---|---|---|---|---|
| 1778018043 | 27.78° C | 30% | 1009.6 hPa | 0 mm | 1.79 m/s, 164° | 234 W/m² | - |
| 1778017741 | 27.22° C | 30% | 1009.5 hPa | 0 mm | 2.24 m/s, 311° | 96 W/m² | - |
| 1778017438 | 27.78° C | 31% | 1009.4 hPa | 0 mm | 0.45 m/s, 69° | 193 W/m² | - |
| 1778017135 | 27.78° C | 30% | 1009.5 hPa | 0 mm | 0.89 m/s, 186° | 269 W/m² | - |
| 1778016833 | 27.22° C | 31% | 1009.5 hPa | 0 mm | 1.34 m/s, 140° | 360 W/m² | - |
| 1778016529 | 27.22° C | 32% | 1009.4 hPa | 0 mm | 1.79 m/s, 89° | 132 W/m² | - |
| 1778016226 | 27.78° C | 32% | 1009.4 hPa | 0 mm | 1.34 m/s, 138° | 171 W/m² | - |
| 1778015922 | 27.22° C | 32% | 1009.3 hPa | 0 mm | 1.79 m/s, 240° | 210 W/m² | - |
| 1778015620 | 27.22° C | 32% | 1009.3 hPa | 0 mm | 0.89 m/s, 210° | 140 W/m² | - |
| 1778015316 | 27.78° C | 30% | 1009.5 hPa | 0 mm | 2.24 m/s, 145° | 168 W/m² | - |
| 1778015013 | 27.78° C | 30% | 1009.7 hPa | 0 mm | 3.13 m/s, 153° | 247 W/m² | - |
| 1778014710 | 27.78° C | 30% | 1009.7 hPa | 0 mm | 1.34 m/s, 164° | 291 W/m² | - |
| 1778014408 | 27.22° C | 31% | 1009.4 hPa | 0 mm | 1.34 m/s, 143° | 304 W/m² | - |
| 1778014105 | 27.22° C | 34% | 1009.4 hPa | 0 mm | 0.45 m/s, 98° | 203 W/m² | - |
| 1778013803 | 27.78° C | 32% | 1009.6 hPa | 0 mm | 1.79 m/s, 328° | 225 W/m² | - |
| 1778013500 | 27.78° C | 32% | 1009.3 hPa | 0 mm | 2.24 m/s, 140° | 206 W/m² | - |
| 1778013196 | 27.78° C | 32% | 1009.2 hPa | 0 mm | 2.24 m/s, 138° | 244 W/m² | - |
| 1778012893 | 27.78° C | 33% | 1009.4 hPa | 0 mm | 2.24 m/s, 204° | 336 W/m² | - |
| 1778012589 | 28.33° C | 33% | 1009.3 hPa | 0 mm | 0.45 m/s, 133° | 386 W/m² | - |
| 1778012286 | 27.78° C | 32% | 1009.4 hPa | 0 mm | 3.13 m/s, 174° | 373 W/m² | - |
| 1778011983 | 28.33° C | 32% | 1009.4 hPa | 0 mm | 3.13 m/s, 141° | 341 W/m² | - |
| 1778011682 | 28.33° C | 33% | 1009.2 hPa | 0 mm | 0.89 m/s, 108° | 406 W/m² | - |
| 1778011378 | 28.33° C | 31% | 1009.8 hPa | 0 mm | 1.34 m/s, 134° | 497 W/m² | - |
| 1778011073 | 28.33° C | 31% | 1009.5 hPa | 0 mm | 2.68 m/s, 198° | 534 W/m² | - |
| 1778010771 | 28.33° C | 31% | 1009.4 hPa | 0 mm | 1.34 m/s, 177° | 557 W/m² | - |
* Rain latest hour (hover to see other rain measurements)
** Current wind speed in m/s (hover to see current wind gust speed)